Station,Latitude,Longitude,DateTime,Temperature,Salinite
Carry,43.319,5.161,2016-01-01T00:05:06.000000+0100,15.69,37.89
Carry,43.319,5.161,2016-01-01T01:05:06.000000+0100,15.67,37.87
Carry,43.319,5.161,2016-01-01T02:05:06.000000+0100,15.66,37.88
Carry,43.319,5.161,2016-01-01T03:05:06.000000+0100,15.65,37.81
Carry,43.319,5.161,2016-01-01T04:05:06.000000+0100,15.63,37.65
Carry,43.319,5.161,2016-01-01T05:05:06.000000+0100,15.64,37.88
Carry,43.319,5.161,2016-01-01T06:05:06.000000+0100,15.63,37.89
Carry,43.319,5.161,2016-01-01T07:05:06.000000+0100,15.61,37.55
Carry,43.319,5.161,2016-01-01T08:05:06.000000+0100,15.62,36.9
Carry,43.319,5.161,2016-01-01T09:05:06.000000+0100,15.6,36.9
Carry,43.319,5.161,2016-01-01T10:05:06.000000+0100,15.59,37.13
Carry,43.319,5.161,2016-01-01T11:05:06.000000+0100,15.61,37.86
Carry,43.319,5.161,2016-01-01T12:05:06.000000+0100,15.62,36.99
Carry,43.319,5.161,2016-01-01T13:05:06.000000+0100,15.63,37.24
Carry,43.319,5.161,2016-01-01T14:05:06.000000+0100,15.63,37.35
Carry,43.319,5.161,2016-01-01T15:05:06.000000+0100,15.63,36.16
Carry,43.319,5.161,2016-01-01T16:05:06.000000+0100,15.63,36.09
Carry,43.319,5.161,2016-01-01T17:05:06.000000+0100,15.62,35.93
Carry,43.319,5.161,2016-01-01T18:05:06.000000+0100,15.63,36.65
Carry,43.319,5.161,2016-01-01T19:05:06.000000+0100,15.63,36.17
Carry,43.319,5.161,2016-01-01T20:05:06.000000+0100,15.63,37.22
Carry,43.319,5.161,2016-01-01T21:05:06.000000+0100,15.6,36.23
Carry,43.319,5.161,2016-01-01T22:05:06.000000+0100,15.6,36.11
Carry,43.319,5.161,2016-01-01T23:05:06.000000+0100,15.64,36.34
Carry,43.319,5.161,2016-01-02T00:05:06.000000+0100,15.66,36.81
Carry,43.319,5.161,2016-01-02T01:05:06.000000+0100,15.65,36.76
Carry,43.319,5.161,2016-01-02T02:05:06.000000+0100,15.66,36.19
Carry,43.319,5.161,2016-01-02T03:05:06.000000+0100,15.66,36.5
Carry,43.319,5.161,2016-01-02T04:05:06.000000+0100,15.66,37.77
Carry,43.319,5.161,2016-01-02T05:05:06.000000+0100,15.66,37.75
Carry,43.319,5.161,2016-01-02T06:05:06.000000+0100,15.66,37.84
Carry,43.319,5.161,2016-01-02T07:05:06.000000+0100,15.65,37.81
Carry,43.319,5.161,2016-01-02T08:05:06.000000+0100,15.66,37.81
Carry,43.319,5.161,2016-01-02T09:05:06.000000+0100,15.66,37.76
Carry,43.319,5.161,2016-01-02T10:05:06.000000+0100,15.66,37.73
Carry,43.319,5.161,2016-01-02T11:05:06.000000+0100,15.67,37.67
Carry,43.319,5.161,2016-01-02T12:05:06.000000+0100,15.67,37.73
Carry,43.319,5.161,2016-01-02T13:05:06.000000+0100,15.66,36.63
Carry,43.319,5.161,2016-01-02T14:05:06.000000+0100,15.65,36.41
Carry,43.319,5.161,2016-01-02T15:05:06.000000+0100,15.66,36.47
Carry,43.319,5.161,2016-01-02T16:05:06.000000+0100,15.64,35.74
Carry,43.319,5.161,2016-01-02T17:05:06.000000+0100,15.6,36.25
Carry,43.319,5.161,2016-01-02T18:05:06.000000+0100,15.61,36.68
Carry,43.319,5.161,2016-01-02T19:05:06.000000+0100,15.6,37.37
Carry,43.319,5.161,2016-01-02T20:05:06.000000+0100,15.57,36.3
Carry,43.319,5.161,2016-01-02T21:05:06.000000+0100,15.56,37.02
Carry,43.319,5.161,2016-01-02T22:05:06.000000+0100,15.55,37.21
Carry,43.319,5.161,2016-01-02T23:05:06.000000+0100,15.5,36.75
Carry,43.319,5.161,2016-01-03T00:05:06.000000+0100,15.51,36.49
Carry,43.319,5.161,2016-01-03T01:05:06.000000+0100,15.49,36.92
Carry,43.319,5.161,2016-01-03T02:05:06.000000+0100,15.42,37.81
Carry,43.319,5.161,2016-01-03T03:05:06.000000+0100,15.41,36.94
Carry,43.319,5.161,2016-01-03T04:05:06.000000+0100,15.41,36.79
Carry,43.319,5.161,2016-01-03T05:05:06.000000+0100,15.43,36.82
Carry,43.319,5.161,2016-01-03T06:05:06.000000+0100,15.41,36.77
Carry,43.319,5.161,2016-01-03T07:05:06.000000+0100,15.42,36.55
Carry,43.319,5.161,2016-01-03T08:05:06.000000+0100,15.37,36.71
Carry,43.319,5.161,2016-01-03T09:05:06.000000+0100,15.37,36.98
Carry,43.319,5.161,2016-01-03T10:05:06.000000+0100,15.39,36.99
Carry,43.319,5.161,2016-01-03T11:05:06.000000+0100,15.43,36.9
Carry,43.319,5.161,2016-01-03T12:05:06.000000+0100,15.46,37.03
Carry,43.319,5.161,2016-01-03T13:05:06.000000+0100,15.47,36.48
Carry,43.319,5.161,2016-01-03T14:05:06.000000+0100,15.5,37.04
Carry,43.319,5.161,2016-01-03T15:05:06.000000+0100,15.52,37.55
Carry,43.319,5.161,2016-01-03T16:05:06.000000+0100,15.53,37.07
Carry,43.319,5.161,2016-01-03T17:05:06.000000+0100,15.52,36.82
Carry,43.319,5.161,2016-01-03T18:05:06.000000+0100,15.53,36.88
Carry,43.319,5.161,2016-01-03T19:05:06.000000+0100,15.49,37.62
Carry,43.319,5.161,2016-01-03T20:05:06.000000+0100,15.51,37.89
Carry,43.319,5.161,2016-01-03T21:05:06.000000+0100,15.49,36.93
Carry,43.319,5.161,2016-01-03T22:05:06.000000+0100,15.49,37.24
Carry,43.319,5.161,2016-01-03T23:05:06.000000+0100,15.48,37.11
Carry,43.319,5.161,2016-01-04T00:05:06.000000+0100,15.48,37.37
Carry,43.319,5.161,2016-01-04T01:05:06.000000+0100,15.47,36.07
Carry,43.319,5.161,2016-01-04T02:05:06.000000+0100,15.46,36.82
Carry,43.319,5.161,2016-01-04T03:05:06.000000+0100,15.44,36.77
Carry,43.319,5.161,2016-01-04T04:05:06.000000+0100,15.45,36.26
Carry,43.319,5.161,2016-01-04T05:05:06.000000+0100,15.46,36.41
Carry,43.319,5.161,2016-01-04T06:05:06.000000+0100,15.44,36.54
Carry,43.319,5.161,2016-01-04T07:05:06.000000+0100,15.46,37.14
Carry,43.319,5.161,2016-01-04T08:05:06.000000+0100,15.44,36.75
Carry,43.319,5.161,2016-01-04T09:05:06.000000+0100,15.45,36.82
Carry,43.319,5.161,2016-01-04T10:05:06.000000+0100,15.44,37.05
Carry,43.319,5.161,2016-01-04T11:05:06.000000+0100,15.44,36.51
Carry,43.319,5.161,2016-01-04T12:05:06.000000+0100,15.44,36.75
Carry,43.319,5.161,2016-01-04T13:05:06.000000+0100,15.44,37.64
Carry,43.319,5.161,2016-01-04T14:05:06.000000+0100,15.45,37.02
Carry,43.319,5.161,2016-01-04T15:05:06.000000+0100,15.42,37.61
Carry,43.319,5.161,2016-01-04T16:05:06.000000+0100,15.42,37.51
Carry,43.319,5.161,2016-01-04T17:05:06.000000+0100,15.4,37.68
Carry,43.319,5.161,2016-01-04T18:05:06.000000+0100,15.38,37.51
Carry,43.319,5.161,2016-01-04T19:05:06.000000+0100,15.38,36.51
Carry,43.319,5.161,2016-01-04T20:05:06.000000+0100,15.35,36.54
Carry,43.319,5.161,2016-01-04T21:05:06.000000+0100,15.38,36.92
Carry,43.319,5.161,2016-01-04T22:05:06.000000+0100,15.4,37.87
Carry,43.319,5.161,2016-01-04T23:05:06.000000+0100,15.4,37.59
Carry,43.319,5.161,2016-01-05T00:05:06.000000+0100,15.38,36.38
Carry,43.319,5.161,2016-01-05T01:05:06.000000+0100,15.37,36.71
Carry,43.319,5.161,2016-01-05T02:05:06.000000+0100,15.38,36.65
Carry,43.319,5.161,2016-01-05T03:05:06.000000+0100,15.39,37.0
Carry,43.319,5.161,2016-01-05T04:05:06.000000+0100,15.39,37.17
Carry,43.319,5.161,2016-01-05T05:05:06.000000+0100,15.37,37.51
Carry,43.319,5.161,2016-01-05T06:05:06.000000+0100,15.37,37.89
Carry,43.319,5.161,2016-01-05T07:05:06.000000+0100,15.35,36.89
Carry,43.319,5.161,2016-01-05T08:05:06.000000+0100,15.33,37.13
Carry,43.319,5.161,2016-01-05T09:05:06.000000+0100,15.33,37.57
Carry,43.319,5.161,2016-01-05T10:05:06.000000+0100,15.36,37.87
Carry,43.319,5.161,2016-01-05T11:05:06.000000+0100,15.36,37.88
Carry,43.319,5.161,2016-01-05T12:05:06.000000+0100,15.35,37.47
Carry,43.319,5.161,2016-01-05T13:05:06.000000+0100,15.35,37.45
Carry,43.319,5.161,2016-01-05T14:05:06.000000+0100,15.35,36.88
Carry,43.319,5.161,2016-01-05T15:05:06.000000+0100,15.33,37.89
Carry,43.319,5.161,2016-01-05T16:05:06.000000+0100,15.32,37.87
Carry,43.319,5.161,2016-01-05T17:05:06.000000+0100,15.31,37.91
Carry,43.319,5.161,2016-01-05T18:05:06.000000+0100,15.33,37.18
Carry,43.319,5.161,2016-01-05T19:05:06.000000+0100,15.33,37.71
Carry,43.319,5.161,2016-01-05T20:05:06.000000+0100,15.35,37.87
Carry,43.319,5.161,2016-01-05T21:05:06.000000+0100,15.35,37.82
Carry,43.319,5.161,2016-01-05T22:05:06.000000+0100,15.35,37.86
Carry,43.319,5.161,2016-01-05T23:05:06.000000+0100,15.34,37.79
Carry,43.319,5.161,2016-01-06T00:05:06.000000+0100,15.33,37.72
Carry,43.319,5.161,2016-01-06T01:05:06.000000+0100,15.33,37.33
Carry,43.319,5.161,2016-01-06T02:05:06.000000+0100,15.3,36.79
Carry,43.319,5.161,2016-01-06T03:05:06.000000+0100,15.29,37.24
Carry,43.319,5.161,2016-01-06T04:05:06.000000+0100,15.3,36.88
Carry,43.319,5.161,2016-01-06T05:05:06.000000+0100,15.28,37.67
Carry,43.319,5.161,2016-01-06T06:05:06.000000+0100,15.27,37.81
Carry,43.319,5.161,2016-01-06T07:05:06.000000+0100,15.28,37.5
Carry,43.319,5.161,2016-01-06T08:05:06.000000+0100,15.25,37.38
Carry,43.319,5.161,2016-01-06T09:05:06.000000+0100,15.25,37.1
Carry,43.319,5.161,2016-01-06T10:05:06.000000+0100,15.26,37.49
Carry,43.319,5.161,2016-01-06T11:05:06.000000+0100,15.24,37.62
Carry,43.319,5.161,2016-01-06T12:05:06.000000+0100,15.24,37.58
Carry,43.319,5.161,2016-01-06T13:05:06.000000+0100,15.23,37.1
Carry,43.319,5.161,2016-01-06T14:05:06.000000+0100,15.21,37.79
Carry,43.319,5.161,2016-01-06T15:05:06.000000+0100,15.2,37.59
Carry,43.319,5.161,2016-01-06T16:05:06.000000+0100,15.19,37.42
Carry,43.319,5.161,2016-01-06T17:05:06.000000+0100,15.17,37.5
Carry,43.319,5.161,2016-01-06T18:05:06.000000+0100,15.17,37.25
Carry,43.319,5.161,2016-01-06T19:05:06.000000+0100,15.14,37.52
Carry,43.319,5.161,2016-01-06T20:05:06.000000+0100,15.12,37.14
Carry,43.319,5.161,2016-01-06T21:05:06.000000+0100,15.1,37.74
Carry,43.319,5.161,2016-01-06T22:05:06.000000+0100,15.06,36.64
Carry,43.319,5.161,2016-01-06T23:05:06.000000+0100,15.14,37.83
Carry,43.319,5.161,2016-01-07T00:05:06.000000+0100,15.19,37.81
Carry,43.319,5.161,2016-01-07T01:05:06.000000+0100,15.25,37.62
Carry,43.319,5.161,2016-01-07T02:05:06.000000+0100,15.22,36.96
Carry,43.319,5.161,2016-01-07T03:05:06.000000+0100,15.23,37.36
Carry,43.319,5.161,2016-01-07T04:05:06.000000+0100,15.25,37.67
Carry,43.319,5.161,2016-01-07T05:05:06.000000+0100,15.27,36.37
Carry,43.319,5.161,2016-01-07T06:05:06.000000+0100,15.27,37.33
Carry,43.319,5.161,2016-01-07T07:05:06.000000+0100,15.29,37.51
Carry,43.319,5.161,2016-01-07T08:05:06.000000+0100,15.29,36.58
Carry,43.319,5.161,2016-01-07T09:05:06.000000+0100,15.29,36.55
Carry,43.319,5.161,2016-01-07T10:05:06.000000+0100,15.29,36.83
Carry,43.319,5.161,2016-01-07T11:05:06.000000+0100,15.29,37.55
Carry,43.319,5.161,2016-01-07T12:05:06.000000+0100,15.3,37.85
Carry,43.319,5.161,2016-01-07T13:05:06.000000+0100,15.31,37.04
Carry,43.319,5.161,2016-01-07T14:05:06.000000+0100,15.3,37.38
Carry,43.319,5.161,2016-01-07T15:05:06.000000+0100,15.32,37.53
Carry,43.319,5.161,2016-01-07T16:05:06.000000+0100,15.34,37.59
Carry,43.319,5.161,2016-01-07T17:05:06.000000+0100,15.34,37.8
Carry,43.319,5.161,2016-01-07T18:05:06.000000+0100,15.33,37.82
Carry,43.319,5.161,2016-01-07T19:05:06.000000+0100,15.33,37.19
Carry,43.319,5.161,2016-01-07T20:05:06.000000+0100,15.33,37.86
Carry,43.319,5.161,2016-01-07T21:05:06.000000+0100,15.31,37.8
Carry,43.319,5.161,2016-01-07T22:05:06.000000+0100,15.29,37.97
Carry,43.319,5.161,2016-01-07T23:05:06.000000+0100,15.3,37.96
Carry,43.319,5.161,2016-01-08T00:05:06.000000+0100,15.33,37.96
Carry,43.319,5.161,2016-01-08T01:05:06.000000+0100,15.3,37.71
Carry,43.319,5.161,2016-01-08T02:05:06.000000+0100,15.32,37.44
Carry,43.319,5.161,2016-01-08T03:05:06.000000+0100,15.3,37.43
Carry,43.319,5.161,2016-01-08T04:05:06.000000+0100,15.28,37.03
Carry,43.319,5.161,2016-01-08T05:05:06.000000+0100,15.28,37.18
Carry,43.319,5.161,2016-01-08T06:05:06.000000+0100,15.27,37.51
Carry,43.319,5.161,2016-01-08T07:05:06.000000+0100,15.13,36.58
Carry,43.319,5.161,2016-01-08T08:05:06.000000+0100,15.07,36.41
Carry,43.319,5.161,2016-01-08T09:05:06.000000+0100,15.14,37.4
Carry,43.319,5.161,2016-01-08T10:05:06.000000+0100,15.17,37.19
Carry,43.319,5.161,2016-01-08T11:05:06.000000+0100,15.18,36.91
Carry,43.319,5.161,2016-01-08T12:05:06.000000+0100,15.19,37.93
Carry,43.319,5.161,2016-01-08T13:05:06.000000+0100,15.15,37.92
Carry,43.319,5.161,2016-01-08T14:05:06.000000+0100,15.41,37.91
Carry,43.319,5.161,2016-01-08T15:05:06.000000+0100,15.39,37.88
Carry,43.319,5.161,2016-01-08T16:05:06.000000+0100,15.33,37.84
Carry,43.319,5.161,2016-01-08T17:05:06.000000+0100,15.27,37.78
Carry,43.319,5.161,2016-01-08T18:05:06.000000+0100,15.03,37.22
Carry,43.319,5.161,2016-01-08T19:05:06.000000+0100,14.96,36.15
Carry,43.319,5.161,2016-01-08T20:05:06.000000+0100,15.06,36.11
Carry,43.319,5.161,2016-01-08T21:05:06.000000+0100,15.09,37.43
Carry,43.319,5.161,2016-01-08T22:05:06.000000+0100,15.01,37.27
Carry,43.319,5.161,2016-01-08T23:05:06.000000+0100,15.0,36.96
Carry,43.319,5.161,2016-01-09T00:05:06.000000+0100,14.97,37.24
Carry,43.319,5.161,2016-01-09T01:05:06.000000+0100,14.99,37.35
Carry,43.319,5.161,2016-01-09T02:05:06.000000+0100,14.89,36.87
Carry,43.319,5.161,2016-01-09T03:05:06.000000+0100,14.93,36.84
Carry,43.319,5.161,2016-01-09T04:05:06.000000+0100,14.95,36.97
Carry,43.319,5.161,2016-01-09T05:05:06.000000+0100,14.96,37.39
Carry,43.319,5.161,2016-01-09T06:05:06.000000+0100,14.96,37.12
Carry,43.319,5.161,2016-01-09T07:05:06.000000+0100,14.98,37.27
Carry,43.319,5.161,2016-01-09T08:05:06.000000+0100,14.97,36.48
Carry,43.319,5.161,2016-01-09T09:05:06.000000+0100,14.96,36.7
Carry,43.319,5.161,2016-01-09T10:05:06.000000+0100,15.04,36.64
Carry,43.319,5.161,2016-01-09T11:05:06.000000+0100,15.03,36.75
Carry,43.319,5.161,2016-01-09T12:05:06.000000+0100,15.04,37.01
Carry,43.319,5.161,2016-01-09T13:05:06.000000+0100,15.04,36.39
Carry,43.319,5.161,2016-01-09T14:05:06.000000+0100,14.95,35.58
Carry,43.319,5.161,2016-01-09T15:05:06.000000+0100,14.91,37.2
Carry,43.319,5.161,2016-01-09T16:05:06.000000+0100,14.91,37.17
Carry,43.319,5.161,2016-01-09T17:05:06.000000+0100,14.9,37.26
Carry,43.319,5.161,2016-01-09T18:05:06.000000+0100,14.91,36.84
Carry,43.319,5.161,2016-01-09T19:05:06.000000+0100,14.95,36.75
Carry,43.319,5.161,2016-01-09T20:05:06.000000+0100,14.81,36.94
Carry,43.319,5.161,2016-01-09T21:05:06.000000+0100,14.8,36.63
Carry,43.319,5.161,2016-01-09T22:05:06.000000+0100,14.84,36.1
Carry,43.319,5.161,2016-01-09T23:05:06.000000+0100,14.79,37.18
Carry,43.319,5.161,2016-01-10T00:05:06.000000+0100,14.8,36.67
Carry,43.319,5.161,2016-01-10T01:05:06.000000+0100,14.74,37.32
Carry,43.319,5.161,2016-01-10T02:05:06.000000+0100,14.76,36.85
Carry,43.319,5.161,2016-01-10T03:05:06.000000+0100,14.72,36.78
Carry,43.319,5.161,2016-01-10T04:05:06.000000+0100,14.89,36.29
Carry,43.319,5.161,2016-01-10T05:05:06.000000+0100,14.73,36.13
Carry,43.319,5.161,2016-01-10T06:05:06.000000+0100,14.71,36.49
Carry,43.319,5.161,2016-01-10T07:05:06.000000+0100,14.72,36.5
Carry,43.319,5.161,2016-01-10T08:05:06.000000+0100,14.74,35.02
Carry,43.319,5.161,2016-01-10T09:05:06.000000+0100,14.69,34.9
Carry,43.319,5.161,2016-01-10T10:05:06.000000+0100,14.69,35.02
Carry,43.319,5.161,2016-01-10T11:05:06.000000+0100,14.8,36.01
Carry,43.319,5.161,2016-01-10T12:05:06.000000+0100,14.99,36.4
Carry,43.319,5.161,2016-01-10T13:05:06.000000+0100,15.15,35.72
Carry,43.319,5.161,2016-01-10T14:05:06.000000+0100,15.18,36.77
Carry,43.319,5.161,2016-01-10T15:05:06.000000+0100,15.19,36.84
Carry,43.319,5.161,2016-01-10T16:05:06.000000+0100,15.14,36.51
Carry,43.319,5.161,2016-01-10T17:05:06.000000+0100,15.11,36.62
Carry,43.319,5.161,2016-01-10T18:05:06.000000+0100,15.06,37.09
Carry,43.319,5.161,2016-01-10T19:05:06.000000+0100,15.06,36.2
Carry,43.319,5.161,2016-01-10T20:05:06.000000+0100,15.04,35.99
Carry,43.319,5.161,2016-01-10T21:05:06.000000+0100,15.01,36.73
Carry,43.319,5.161,2016-01-10T22:05:06.000000+0100,15.0,36.71
Carry,43.319,5.161,2016-01-10T23:05:06.000000+0100,15.05,36.34
Carry,43.319,5.161,2016-01-11T00:05:06.000000+0100,15.04,37.15
Carry,43.319,5.161,2016-01-11T01:05:06.000000+0100,15.05,37.15
Carry,43.319,5.161,2016-01-11T02:05:06.000000+0100,15.07,37.33
Carry,43.319,5.161,2016-01-11T03:05:06.000000+0100,15.06,35.93
Carry,43.319,5.161,2016-01-11T04:05:06.000000+0100,15.04,36.33
Carry,43.319,5.161,2016-01-11T05:05:06.000000+0100,15.03,36.18
Carry,43.319,5.161,2016-01-11T06:05:06.000000+0100,15.01,36.71
Carry,43.319,5.161,2016-01-11T07:05:06.000000+0100,15.02,37.31
Carry,43.319,5.161,2016-01-11T08:05:06.000000+0100,15.01,37.38
Carry,43.319,5.161,2016-01-11T09:05:06.000000+0100,14.98,37.39
Carry,43.319,5.161,2016-01-11T10:05:06.000000+0100,15.03,36.55
Carry,43.319,5.161,2016-01-11T11:05:06.000000+0100,15.04,36.09
Carry,43.319,5.161,2016-01-11T12:05:06.000000+0100,15.03,36.67
Carry,43.319,5.161,2016-01-11T13:05:06.000000+0100,15.09,36.52
Carry,43.319,5.161,2016-01-11T14:05:06.000000+0100,15.09,37.23
Carry,43.319,5.161,2016-01-11T15:05:06.000000+0100,15.13,37.08
Carry,43.319,5.161,2016-01-11T16:05:06.000000+0100,15.17,36.32
Carry,43.319,5.161,2016-01-11T17:05:06.000000+0100,15.18,36.98
Carry,43.319,5.161,2016-01-11T18:05:06.000000+0100,15.18,37.3
Carry,43.319,5.161,2016-01-11T19:05:06.000000+0100,15.17,37.12
Carry,43.319,5.161,2016-01-11T20:05:06.000000+0100,15.15,37.78
Carry,43.319,5.161,2016-01-11T21:05:06.000000+0100,15.17,37.84
Carry,43.319,5.161,2016-01-11T22:05:06.000000+0100,15.14,37.86
Carry,43.319,5.161,2016-01-11T23:05:06.000000+0100,15.17,37.89
Carry,43.319,5.161,2016-01-12T00:05:06.000000+0100,15.15,37.78
Carry,43.319,5.161,2016-01-12T01:05:06.000000+0100,15.16,37.89
Carry,43.319,5.161,2016-01-12T02:05:06.000000+0100,15.14,37.73
Carry,43.319,5.161,2016-01-12T03:05:06.000000+0100,15.14,37.49
Carry,43.319,5.161,2016-01-12T04:05:06.000000+0100,15.13,37.6
Carry,43.319,5.161,2016-01-12T05:05:06.000000+0100,15.13,37.66
Carry,43.319,5.161,2016-01-12T06:05:06.000000+0100,15.09,37.85
Carry,43.319,5.161,2016-01-12T07:05:06.000000+0100,15.05,37.89
Carry,43.319,5.161,2016-01-12T08:05:06.000000+0100,15.06,37.48
Carry,43.319,5.161,2016-01-12T09:05:06.000000+0100,15.06,36.68
Carry,43.319,5.161,2016-01-12T10:05:06.000000+0100,15.1,37.12
Carry,43.319,5.161,2016-01-12T11:05:06.000000+0100,15.1,37.19
Carry,43.319,5.161,2016-01-12T12:05:06.000000+0100,15.09,37.36
Carry,43.319,5.161,2016-01-12T13:05:06.000000+0100,15.12,37.05
Carry,43.319,5.161,2016-01-12T14:05:06.000000+0100,15.1,36.69
Carry,43.319,5.161,2016-01-12T15:05:06.000000+0100,15.06,37.61
Carry,43.319,5.161,2016-01-12T16:05:06.000000+0100,15.06,36.69
Carry,43.319,5.161,2016-01-12T17:05:06.000000+0100,15.1,37.18
Carry,43.319,5.161,2016-01-12T18:05:06.000000+0100,15.13,37.63
Carry,43.319,5.161,2016-01-12T19:05:06.000000+0100,15.12,37.91
Carry,43.319,5.161,2016-01-12T20:05:06.000000+0100,15.11,37.18
Carry,43.319,5.161,2016-01-12T21:05:06.000000+0100,15.06,37.88
Carry,43.319,5.161,2016-01-12T22:05:06.000000+0100,14.97,37.45
Carry,43.319,5.161,2016-01-12T23:05:06.000000+0100,14.94,36.78
Carry,43.319,5.161,2016-01-13T00:05:06.000000+0100,14.94,37.63
Carry,43.319,5.161,2016-01-13T01:05:06.000000+0100,14.89,37.6
Carry,43.319,5.161,2016-01-13T02:05:06.000000+0100,15.01,37.88
Carry,43.319,5.161,2016-01-13T03:05:06.000000+0100,15.01,37.65
Carry,43.319,5.161,2016-01-13T04:05:06.000000+0100,14.99,37.72
Carry,43.319,5.161,2016-01-13T05:05:06.000000+0100,15.0,36.91
Carry,43.319,5.161,2016-01-13T06:05:06.000000+0100,14.98,37.62
Carry,43.319,5.161,2016-01-13T07:05:06.000000+0100,14.94,36.3
Carry,43.319,5.161,2016-01-13T08:05:06.000000+0100,14.89,37.04
Carry,43.319,5.161,2016-01-13T09:05:06.000000+0100,14.87,36.77
Carry,43.319,5.161,2016-01-13T10:05:06.000000+0100,14.86,37.96
Carry,43.319,5.161,2016-01-13T11:05:06.000000+0100,14.86,37.62
Carry,43.319,5.161,2016-01-13T12:05:06.000000+0100,14.91,37.7
Carry,43.319,5.161,2016-01-13T13:05:06.000000+0100,14.93,36.74
Carry,43.319,5.161,2016-01-13T14:05:06.000000+0100,14.91,37.29
Carry,43.319,5.161,2016-01-13T15:05:06.000000+0100,14.92,36.76
Carry,43.319,5.161,2016-01-13T16:05:06.000000+0100,14.9,37.88
Carry,43.319,5.161,2016-01-13T17:05:06.000000+0100,14.89,37.97
Carry,43.319,5.161,2016-01-13T18:05:06.000000+0100,14.86,37.43
Carry,43.319,5.161,2016-01-13T19:05:06.000000+0100,14.84,37.5
Carry,43.319,5.161,2016-01-13T20:05:06.000000+0100,14.85,36.79
Carry,43.319,5.161,2016-01-13T21:05:06.000000+0100,14.83,37.12
Carry,43.319,5.161,2016-01-13T22:05:06.000000+0100,14.84,37.0
Carry,43.319,5.161,2016-01-13T23:05:06.000000+0100,14.85,37.1
Carry,43.319,5.161,2016-01-14T00:05:06.000000+0100,14.86,36.99
Carry,43.319,5.161,2016-01-14T01:05:06.000000+0100,14.84,36.92
Carry,43.319,5.161,2016-01-14T02:05:06.000000+0100,14.86,36.85
Carry,43.319,5.161,2016-01-14T03:05:06.000000+0100,14.86,36.72
Carry,43.319,5.161,2016-01-14T04:05:06.000000+0100,14.86,36.85
Carry,43.319,5.161,2016-01-14T05:05:06.000000+0100,14.88,37.05
Carry,43.319,5.161,2016-01-14T06:05:06.000000+0100,14.86,37.94
Carry,43.319,5.161,2016-01-14T07:05:06.000000+0100,14.86,37.35
Carry,43.319,5.161,2016-01-14T08:05:06.000000+0100,14.86,37.21
Carry,43.319,5.161,2016-01-14T09:05:06.000000+0100,14.84,36.94
Carry,43.319,5.161,2016-01-14T10:05:06.000000+0100,14.85,37.0
Carry,43.319,5.161,2016-01-14T11:05:06.000000+0100,14.86,37.25
Carry,43.319,5.161,2016-01-14T12:05:06.000000+0100,14.67,36.27
Carry,43.319,5.161,2016-01-14T13:05:06.000000+0100,13.99,34.66
Carry,43.319,5.161,2016-01-14T14:05:06.000000+0100,13.95,34.83
Carry,43.319,5.161,2016-01-14T15:05:06.000000+0100,14.41,36.47
Carry,43.319,5.161,2016-01-14T16:05:06.000000+0100,14.56,37.14
Carry,43.319,5.161,2016-01-14T17:05:06.000000+0100,14.65,36.45
Carry,43.319,5.161,2016-01-14T18:05:06.000000+0100,14.69,36.89
Carry,43.319,5.161,2016-01-14T19:05:06.000000+0100,14.7,37.18
Carry,43.319,5.161,2016-01-14T20:05:06.000000+0100,14.76,37.78
Carry,43.319,5.161,2016-01-14T21:05:06.000000+0100,14.8,36.97
Carry,43.319,5.161,2016-01-14T22:05:06.000000+0100,14.76,36.36
Carry,43.319,5.161,2016-01-14T23:05:06.000000+0100,14.79,37.03
Carry,43.319,5.161,2016-01-15T00:05:06.000000+0100,14.81,36.76
Carry,43.319,5.161,2016-01-15T01:05:06.000000+0100,14.79,37.53
Carry,43.319,5.161,2016-01-15T02:05:06.000000+0100,14.79,37.28
Carry,43.319,5.161,2016-01-15T03:05:06.000000+0100,14.76,37.54
Carry,43.319,5.161,2016-01-15T04:05:06.000000+0100,14.77,37.37
Carry,43.319,5.161,2016-01-15T05:05:06.000000+0100,14.74,36.92
Carry,43.319,5.161,2016-01-15T06:05:06.000000+0100,14.76,37.93
Carry,43.319,5.161,2016-01-15T07:05:06.000000+0100,14.76,35.94
Carry,43.319,5.161,2016-01-15T08:05:06.000000+0100,14.77,36.69
Carry,43.319,5.161,2016-01-15T09:05:06.000000+0100,14.78,36.79
Carry,43.319,5.161,2016-01-15T10:05:06.000000+0100,14.74,37.45
Carry,43.319,5.161,2016-01-15T11:05:06.000000+0100,14.7,37.65
Carry,43.319,5.161,2016-01-15T12:05:06.000000+0100,14.69,37.31
Carry,43.319,5.161,2016-01-15T13:05:06.000000+0100,14.67,36.78
Carry,43.319,5.161,2016-01-15T14:05:06.000000+0100,14.74,37.59
Carry,43.319,5.161,2016-01-15T15:05:06.000000+0100,14.72,37.75
Carry,43.319,5.161,2016-01-15T16:05:06.000000+0100,14.72,36.93
Carry,43.319,5.161,2016-01-15T17:05:06.000000+0100,14.69,36.67
Carry,43.319,5.161,2016-01-15T18:05:06.000000+0100,14.73,37.52
Carry,43.319,5.161,2016-01-15T19:05:06.000000+0100,14.72,37.92
Carry,43.319,5.161,2016-01-15T20:05:06.000000+0100,14.72,37.6
Carry,43.319,5.161,2016-01-15T21:05:06.000000+0100,14.72,37.27
Carry,43.319,5.161,2016-01-15T22:05:06.000000+0100,14.66,37.42
Carry,43.319,5.161,2016-01-15T23:05:06.000000+0100,14.62,36.97
Carry,43.319,5.161,2016-01-16T00:05:06.000000+0100,14.64,37.26
Carry,43.319,5.161,2016-01-16T01:05:06.000000+0100,14.6,37.7
Carry,43.319,5.161,2016-01-16T02:05:06.000000+0100,14.55,36.49
Carry,43.319,5.161,2016-01-16T03:05:06.000000+0100,14.42,37.69
Carry,43.319,5.161,2016-01-16T04:05:06.000000+0100,14.28,37.06
Carry,43.319,5.161,2016-01-16T05:05:06.000000+0100,14.19,37.22
Carry,43.319,5.161,2016-01-16T06:05:06.000000+0100,14.16,36.56
Carry,43.319,5.161,2016-01-16T07:05:06.000000+0100,14.16,37.69
Carry,43.319,5.161,2016-01-16T08:05:06.000000+0100,14.16,37.69
Carry,43.319,5.161,2016-01-16T09:05:06.000000+0100,14.16,37.43
Carry,43.319,5.161,2016-01-16T10:05:06.000000+0100,14.21,37.03
Carry,43.319,5.161,2016-01-16T11:05:06.000000+0100,14.25,36.81
Carry,43.319,5.161,2016-01-16T12:05:06.000000+0100,14.24,37.4
Carry,43.319,5.161,2016-01-16T13:05:06.000000+0100,14.27,37.58
Carry,43.319,5.161,2016-01-16T14:05:06.000000+0100,14.24,37.59
Carry,43.319,5.161,2016-01-16T15:05:06.000000+0100,14.2,36.82
Carry,43.319,5.161,2016-01-16T16:05:06.000000+0100,14.19,37.93
Carry,43.319,5.161,2016-01-16T17:05:06.000000+0100,14.1,37.5
Carry,43.319,5.161,2016-01-16T18:05:06.000000+0100,14.06,37.91
Carry,43.319,5.161,2016-01-16T19:05:06.000000+0100,13.99,37.81
Carry,43.319,5.161,2016-01-16T20:05:06.000000+0100,13.97,36.83